Location: Fort Worth, Tx
(32.7431°N, 97.3695°W)
Time: 12:55:56
(UTC-04:00)

Vanguard 2 Rocket - Pass Details

Date: 29 February 2024
Orbit: 555 x 3307 km, 32.9° (Epoch: 23 April)

Event Time Altitude Azimuth Distance (km) Brightness Sun altitude
Rises 19:32:46 0° 284° (WNW) 5,178 12.3 -2.1°
Reaches altitude 10° 19:35:41 10° 280° (W) 4,488 12.0 -2.8°
Maximum altitude 19:49:00 62° 205° (SSW) 3,073 9.7 -5.5°
Drops below altitude 10° 20:08:26 10° 130° (SE) 6,258 10.7 -9.6°
Sets 20:13:25 0° 128° (SE) 7,252 11.0 -10.7°
